Stündliche Wetter Holubivs'ke

Heute, 15 Juni, Dienstag

Zeit Temperatur Niederschläge Wind Luftdruck Luftfeuchtigkeit
00:00 +23°C° 0 mm 1 m/S 751 mmHg 68%
01:00 +23°C° 0 mm 1 m/S 751 mmHg 69%
02:00 +21°C° 0 mm 2 m/S 750 mmHg 70%
03:00 +21°C° 0 mm 2 m/S 750 mmHg 71%
04:00 +21°C° 0 mm 2 m/S 750 mmHg 74%
05:00 +20°C° 0 mm 2 m/S 750 mmHg 78%
06:00 +20°C° 0 mm 2 m/S 750 mmHg 81%
07:00 +21°C° 0 mm 2 m/S 750 mmHg 77%
08:00 +23°C° 0 mm 2 m/S 750 mmHg 73%
09:00 +25°C° 0 mm 3 m/S 750 mmHg 69%
10:00 +26°C° 0.3 mm 2 m/S 750 mmHg 64%
11:00 +27°C° 0.3 mm 2 m/S 750 mmHg 58%
12:00 +28°C° 0.3 mm 2 m/S 750 mmHg 53%
13:00 +28°C° 0 mm 1 m/S 750 mmHg 52%
14:00 +28°C° 0 mm 1 m/S 749 mmHg 50%
15:00 +29°C° 0 mm 1 m/S 749 mmHg 49%
16:00 +28°C° 0 mm 1 m/S 749 mmHg 52%
17:00 +28°C° 0 mm 1 m/S 749 mmHg 56%
18:00 +27°C° 0 mm 1 m/S 749 mmHg 59%
19:00 +26°C° 0 mm 1 m/S 749 mmHg 63%
20:00 +25°C° 0 mm 1 m/S 749 mmHg 67%
21:00 +24°C° 0 mm 1 m/S 749 mmHg 71%
22:00 +23°C° 0 mm 1 m/S 749 mmHg 72%
23:00 +23°C° 0 mm 1 m/S 749 mmHg 74%

Morgen, 16 Juni, Mittwoch

Zeit Temperatur Niederschläge Wind Luftdruck Luftfeuchtigkeit
00:00 +22°C° 0 mm 1 m/S 749 mmHg 75%
01:00 +22°C° 0 mm 1 m/S 749 mmHg 77%
02:00 +21°C° 0 mm 1 m/S 749 mmHg 78%
03:00 +21°C° 0 mm 1 m/S 749 mmHg 80%
04:00 +19°C° 0.1 mm 0 m/S 749 mmHg 80%
05:00 +19°C° 0.1 mm 0 m/S 750 mmHg 79%
06:00 +20°C° 0.1 mm 0 m/S 750 mmHg 79%
07:00 +23°C° 0 mm 1 m/S 750 mmHg 74%
08:00 +25°C° 0 mm 1 m/S 750 mmHg 69%
09:00 +26°C° 0 mm 1 m/S 750 mmHg 65%
10:00 +27°C° 0 mm 1 m/S 750 mmHg 61%
11:00 +28°C° 0 mm 2 m/S 750 mmHg 57%
12:00 +29°C° 0 mm 2 m/S 750 mmHg 54%
13:00 +30°C° 0 mm 2 m/S 750 mmHg 51%
14:00 +30°C° 0 mm 2 m/S 750 mmHg 48%
15:00 +31°C° 0 mm 1 m/S 750 mmHg 46%
16:00 +31°C° 0 mm 2 m/S 750 mmHg 49%
17:00 +30°C° 0 mm 2 m/S 750 mmHg 52%
18:00 +30°C° 0 mm 3 m/S 750 mmHg 55%
19:00 +28°C° 0 mm 3 m/S 750 mmHg 61%
20:00 +26°C° 0 mm 3 m/S 751 mmHg 66%
21:00 +25°C° 0 mm 3 m/S 751 mmHg 72%
22:00 +24°C° 0 mm 3 m/S 751 mmHg 74%
23:00 +24°C° 0 mm 3 m/S 751 mmHg 75%

übermorgen, 17 Juni, Donnerstag

Zeit Temperatur Niederschläge Wind Luftdruck Luftfeuchtigkeit
00:00 +22°C° 0 mm 4 m/S 751 mmHg 77%
01:00 +22°C° 0 mm 4 m/S 751 mmHg 78%
02:00 +21°C° 0 mm 4 m/S 751 mmHg 80%
03:00 +21°C° 0 mm 4 m/S 751 mmHg 82%
04:00 +21°C° 0 mm 4 m/S 751 mmHg 83%
05:00 +21°C° 0 mm 4 m/S 751 mmHg 84%
06:00 +21°C° 0 mm 4 m/S 752 mmHg 86%
07:00 +22°C° 0 mm 5 m/S 752 mmHg 81%
08:00 +25°C° 0 mm 5 m/S 753 mmHg 76%
09:00 +26°C° 0 mm 5 m/S 753 mmHg 71%
10:00 +27°C° 0.1 mm 5 m/S 753 mmHg 66%
11:00 +28°C° 0.1 mm 5 m/S 753 mmHg 62%
12:00 +29°C° 0.1 mm 5 m/S 753 mmHg 58%
13:00 +29°C° 0.3 mm 5 m/S 753 mmHg 58%
14:00 +29°C° 0.3 mm 5 m/S 753 mmHg 59%
15:00 +29°C° 0.3 mm 5 m/S 753 mmHg 60%
16:00 +28°C° 0.9 mm 4 m/S 754 mmHg 65%
17:00 +27°C° 0.9 mm 4 m/S 754 mmHg 70%
18:00 +25°C° 0.9 mm 4 m/S 754 mmHg 75%
19:00 +25°C° 1.3 mm 4 m/S 755 mmHg 78%
20:00 +23°C° 1.3 mm 4 m/S 755 mmHg 80%
21:00 +22°C° 1.3 mm 4 m/S 756 mmHg 82%
22:00 +21°C° 0.5 mm 4 m/S 756 mmHg 82%
23:00 +21°C° 0.5 mm 3 m/S 756 mmHg 83%

18 Juni, Freitag

Zeit Temperatur Niederschläge Wind Luftdruck Luftfeuchtigkeit
00:00 +20°C° 0.5 mm 3 m/S 756 mmHg 83%
01:00 +20°C° 0.2 mm 4 m/S 757 mmHg 81%
02:00 +20°C° 0.2 mm 4 m/S 757 mmHg 79%
03:00 +19°C° 0.2 mm 5 m/S 757 mmHg 78%
04:00 +19°C° 0 mm 5 m/S 757 mmHg 78%
05:00 +17°C° 0 mm 5 m/S 757 mmHg 79%
06:00 +17°C° 0 mm 5 m/S 758 mmHg 80%
07:00 +19°C° 0 mm 5 m/S 758 mmHg 77%
08:00 +20°C° 0 mm 5 m/S 758 mmHg 73%
09:00 +21°C° 0 mm 5 m/S 758 mmHg 69%
10:00 +23°C° 0 mm 5 m/S 759 mmHg 65%
11:00 +25°C° 0 mm 5 m/S 759 mmHg 60%
12:00 +26°C° 0 mm 5 m/S 759 mmHg 56%
13:00 +26°C° 0 mm 5 m/S 759 mmHg 53%
14:00 +27°C° 0 mm 6 m/S 759 mmHg 51%
15:00 +27°C° 0 mm 6 m/S 758 mmHg 49%
16:00 +27°C° 0 mm 5 m/S 758 mmHg 52%
17:00 +26°C° 0 mm 5 m/S 759 mmHg 55%
18:00 +26°C° 0 mm 5 m/S 759 mmHg 58%
19:00 +23°C° 0 mm 5 m/S 759 mmHg 62%
20:00 +22°C° 0 mm 4 m/S 759 mmHg 66%
21:00 +21°C° 0 mm 4 m/S 759 mmHg 70%
22:00 +20°C° 0 mm 4 m/S 759 mmHg 69%
23:00 +20°C° 0 mm 4 m/S 759 mmHg 69%

19 Juni, Samstag

Zeit Temperatur Niederschläge Wind Luftdruck Luftfeuchtigkeit
00:00 +20°C° 0 mm 4 m/S 760 mmHg 69%
01:00 +19°C° 0 mm 4 m/S 760 mmHg 72%
02:00 +18°C° 0 mm 3 m/S 760 mmHg 76%
03:00 +17°C° 0 mm 3 m/S 760 mmHg 79%
04:00 +17°C° 0 mm 3 m/S 760 mmHg 78%
05:00 +17°C° 0 mm 4 m/S 761 mmHg 77%
06:00 +17°C° 0 mm 4 m/S 761 mmHg 76%
07:00 +19°C° 0 mm 5 m/S 761 mmHg 70%
08:00 +20°C° 0 mm 5 m/S 761 mmHg 65%
09:00 +22°C° 0 mm 6 m/S 761 mmHg 59%
10:00 +23°C° 0 mm 6 m/S 761 mmHg 56%
11:00 +23°C° 0 mm 6 m/S 761 mmHg 53%
12:00 +24°C° 0 mm 6 m/S 761 mmHg 51%
13:00 +26°C° 0 mm 6 m/S 760 mmHg 49%
14:00 +26°C° 0 mm 6 m/S 760 mmHg 48%
15:00 +27°C° 0 mm 6 m/S 760 mmHg 46%
16:00 +26°C° 0 mm 6 m/S 759 mmHg 49%
17:00 +26°C° 0 mm 5 m/S 759 mmHg 52%
18:00 +26°C° 0 mm 5 m/S 759 mmHg 55%
19:00 +23°C° 0 mm 4 m/S 759 mmHg 61%
20:00 +21°C° 0 mm 4 m/S 759 mmHg 67%
21:00 +20°C° 0 mm 3 m/S 759 mmHg 73%
22:00 +19°C° 0 mm 3 m/S 759 mmHg 74%
23:00 +18°C° 0 mm 3 m/S 759 mmHg 74%

20 Juni, Sonntag

Zeit Temperatur Niederschläge Wind Luftdruck Luftfeuchtigkeit
00:00 +18°C° 0 mm 4 m/S 759 mmHg 75%
01:00 +17°C° 0 mm 3 m/S 759 mmHg 74%
02:00 +17°C° 0 mm 3 m/S 759 mmHg 74%
03:00 +16°C° 0 mm 3 m/S 759 mmHg 73%
04:00 +16°C° 0 mm 3 m/S 759 mmHg 73%
05:00 +17°C° 0 mm 3 m/S 759 mmHg 73%
06:00 +17°C° 0 mm 3 m/S 759 mmHg 72%
07:00 +19°C° 0 mm 4 m/S 759 mmHg 66%
08:00 +21°C° 0 mm 5 m/S 759 mmHg 60%
09:00 +23°C° 0 mm 6 m/S 759 mmHg 53%
10:00 +24°C° 0 mm 7 m/S 759 mmHg 49%
11:00 +26°C° 0 mm 7 m/S 758 mmHg 45%
12:00 +28°C° 0 mm 7 m/S 758 mmHg 41%
13:00 +28°C° 0 mm 7 m/S 758 mmHg 41%
14:00 +29°C° 0 mm 7 m/S 758 mmHg 41%
15:00 +29°C° 0 mm 7 m/S 757 mmHg 41%
16:00 +29°C° 0 mm 6 m/S 757 mmHg 44%
17:00 +28°C° 0 mm 6 m/S 757 mmHg 48%
18:00 +27°C° 0 mm 5 m/S 757 mmHg 51%
19:00 +26°C° 0 mm 5 m/S 757 mmHg 57%
20:00 +23°C° 0 mm 4 m/S 757 mmHg 62%
21:00 +21°C° 0 mm 4 m/S 757 mmHg 68%
22:00 +21°C° 0 mm 4 m/S 757 mmHg 67%
23:00 +20°C° 0 mm 4 m/S 757 mmHg 67%
Mehr zeigen

Wir brauchen deine Erlaubnis

Meteoprog und unser Service Anbieter werden persönliche Daten aufbewahren, so wie Cookies, Geräte Bezeichnung oder ähnliche Technologien von deinem Gerät und Prozess, so wie Persönliche Daten Inhalte und Werbungen, genauso wie social Media und den Verkehr zu analysieren.

  • Aufbewahrung und/oder Zugang zu deiner Geräte Informationen.

    Cookies, Geräte Bezeichnung oder andere Informationen, können aufbewahrt oder Zugang zu deinem Gerät erhalten, für den Grund, der oben angegeben wird.

  • Personalisierte Werbung und Inhalte, Messungen, Einblick in das Publikum und Produkt Entwicklung.

    Werbungen und Inhalte können personalisiert werden, basierend auf ein Profil. Mehr Daten können besser personalisierte Werbungen und Inhalte hinzufügen. Werbung und Inhalte können gezeigt und gemessen werden. Einblicke über das Publikum, welche die Werbung gesehen haben und den Inhalt, können abgeleitet werden. So wie Daten können genutzt werden, um es zu verbessern oder die Benutzer Erfahrung zu verbessern das System und die Software.

Wenn du “Ich stimme zu” klickst, erlaubst du uns, die Cookies zu benutzen die Geräte Bezeichnung, den Web oder ähnliche Technologien zu benutzen. Deine Settings, können in deinem Gerät bei deinem Browser geändert werden.

Für den bestimmten Zweck, berechtigten Interessen beruhen darauf, mehr als auf den Inhalt. Du kannst mehr darüber in unseren Privaten und Cookie Politik lesen.